Theta_e
311 311 311 311 311 311 312 313 313 312 312 313 313 313 313 315 308 302 297 303 304 309 304 295 294 292 292 289 291 291 280 278 281 283 284 286 284 288 289 287 288 291 291 295 296
311 311 311 311 311 311 311 312 312 311 312 312 313 313 313 313 300 295 307 311 309 307 295 291 289 290 285 285 287 284 278 279 284 285 283 284 284 285 285 284 285 287 291 293 295
311 311 311 312 312 311 311 311 312 311 312 312 312 313 313 307 291 293 310 310 308 302 295 294 291 289 284 285 285 284 279 283 283 285 286 285 284 286 284 283 285 285 288 291 293
310 310 310 311 311 311 312 312 312 312 312 313 313 312 311 297 279 295 307 306 305 298 295 291 289 284 282 281 286 280 284 284 285 286 286 284 287 284 285 286 289 288 290 291 291
310 309 309 311 311 312 312 312 312 312 312 312 311 311 298 288 290 298 303 300 295 295 292 289 286 284 281 283 284 282 283 286 287 287 286 286 284 284 285 288 290 290 291 290 291
310 310 311 310 311 311 312 312 312 312 311 310 310 308 290 281 296 294 294 294 294 292 290 291 288 289 285 284 282 284 284 284 286 286 286 284 284 285 285 288 288 288 289 291 291
309 310 310 311 312 312 311 310 311 311 310 310 309 300 291 288 295 293 294 292 293 292 289 292 292 288 286 283 287 285 281 282 283 285 284 286 282 281 287 287 286 288 290 291 292
309 310 310 311 312 311 309 309 310 309 307 308 307 294 287 298 294 292 293 292 294 294 293 293 293 289 286 287 282 279 280 277 283 284 285 284 278 284 287 286 287 289 289 290 291
309 310 310 311 311 311 308 309 305 307 307 305 290 287 280 294 289 291 291 290 292 293 294 296 292 285 284 278 274 275 271 275 279 284 283 282 279 284 288 287 286 287 286 286 287
310 310 310 311 311 308 305 306 302 298 295 291 289 282 284 283 288 290 290 293 290 290 288 286 282 277 276 275 268 272 271 277 276 281 282 280 279 283 286 286 285 284 284 284 285
310 309 310 311 310 306 296 288 285 283 287 282 282 281 284 288 289 288 290 289 288 285 277 282 275 270 276 278 279 277 276 275 278 282 279 279 280 282 284 283 282 282 281 282 283
310 309 310 310 308 303 293 287 286 286 280 286 284 284 286 287 283 286 292 284 280 276 280 273 270 279 281 281 279 276 275 272 278 281 281 279 278 280 281 280 280 280 280 281 282
310 309 310 309 304 296 290 289 292 290 280 281 283 283 284 286 282 284 289 285 277 270 274 269 278 282 281 279 275 274 271 272 276 280 279 276 273 278 281 280 280 281 281 281 281
310 308 309 307 296 293 289 293 291 288 270 277 279 281 285 284 281 288 290 286 282 272 277 274 281 281 279 276 278 269 280 279 277 272 264 277 265 275 276 277 278 280 280 280 281
309 309 305 303 293 291 291 292 290 286 269 278 279 286 285 282 282 284 289 285 280 275 273 274 278 278 273 279 280 276 281 278 275 267 273 269 269 271 274 273 275 278 278 279 281
309 309 305 299 293 292 293 288 286 275 267 271 278 279 277 281 282 283 284 286 284 280 279 274 281 280 280 281 281 281 276 272 270 264 261 265 267 269 271 273 275 277 278 279 280
310 304 299 297 292 293 292 286 282 272 274 271 273 278 276 276 279 279 280 278 274 269 264 272 273 279 281 277 280 275 265 261 262 261 263 262 268 270 274 277 276 276 277 279 280
305 298 294 292 291 294 289 285 278 271 267 276 277 277 274 277 276 276 278 274 278 273 263 262 268 270 280 278 273 270 266 261 258 261 264 265 264 271 277 279 278 277 278 279 279
301 295 293 293 294 293 289 283 285 272 277 276 275 268 267 276 273 269 272 273 277 272 265 262 266 278 279 281 277 271 266 275 266 262 261 262 266 273 278 277 276 275 277 276 278
296 293 290 293 294 291 285 286 275 279 279 278 268 272 265 265 270 266 269 276 278 277 274 270 264 271 275 280 277 272 275 265 264 260 258 261 257 264 272 273 274 273 273 275 277
297 289 291 294 294 287 285 281 273 280 281 277 274 267 272 266 270 265 270 276 277 277 278 274 268 269 275 268 268 269 267 268 268 270 266 264 265 273 274 274 273 273 274 275 276
294 286 291 293 283 280 271 272 280 279 281 279 278 275 272 271 270 265 270 271 278 275 273 277 270 263 267 275 278 273 270 273 268 268 271 270 268 277 278 276 275 274 275 276 277
287 284 292 292 283 275 277 276 279 279 279 279 277 279 277 269 270 274 274 280 280 277 274 277 265 260 267 272 275 271 276 276 272 274 267 266 267 280 279 277 276 274 274 276 276
288 282 283 286 285 283 278 278 278 281 280 280 279 280 277 271 275 269 276 280 281 279 284 281 273 264 263 266 264 268 274 275 270 263 267 267 271 273 276 275 275 274 274 275 275
290 284 283 278 279 281 282 279 276 276 279 280 276 278 276 271 271 271 276 277 279 280 278 274 262 268 269 270 268 270 270 271 267 267 265 266 268 274 276 277 275 275 275 274 274
286 285 285 282 280 279 281 278 277 278 277 276 275 277 278 272 276 273 276 276 273 275 275 275 262 264 260 272 273 270 273 272 268 267 266 267 269 275 279 279 276 274 274 273 274
290 290 290 284 281 278 280 281 278 279 280 280 279 278 277 278 279 278 278 278 277 274 273 268 262 256 259 267 265 264 267 270 268 266 269 265 271 268 273 277 275 274 274 273 274
Wind_Speed
10 10 12 13 13 13 14 15 14 14 14 14 14 13 12 10 6 6 12 9 10 18 9 7 4 8 5 5 5 2 4 1 2 3 3 4 6 4 2 5 5 5 5 7 20
10 10 12 14 13 12 13 14 15 15 15 14 13 13 12 7 3 10 10 15 16 17 8 9 10 8 5 5 4 5 3 3 2 1 2 5 3 4 5 4 9 12 11 7 6
9 10 12 12 13 13 14 14 13 13 13 12 12 12 12 2 5 4 15 16 14 12 5 4 4 4 6 4 5 3 3 1 2 2 1 4 5 4 3 12 8 9 10 13 12
9 10 11 13 14 13 13 12 13 13 12 12 12 11 8 2 3 3 16 14 12 7 7 8 7 5 4 3 4 3 1 2 4 1 4 5 4 6 14 11 8 9 11 12 18
9 10 12 14 13 14 13 13 13 12 12 11 10 9 4 7 2 6 13 9 4 4 6 4 7 3 3 1 5 2 3 4 7 12 10 8 15 10 15 16 14 13 14 14 13
9 10 10 12 13 13 13 13 11 10 9 9 8 4 4 7 2 6 8 4 5 4 5 6 4 3 3 1 2 3 5 10 7 6 6 5 7 2 7 3 7 6 10 11 12
8 11 11 12 13 14 15 13 10 7 6 7 7 3 8 6 2 6 7 2 4 2 3 2 2 3 1 3 1 2 5 6 2 3 6 3 9 8 9 8 8 9 11 12 12
7 9 11 13 14 15 16 11 6 2 2 4 5 3 4 1 1 5 7 3 5 2 1 2 1 2 1 3 5 4 2 6 2 5 5 4 13 5 10 5 15 23 19 15 15
7 8 11 13 14 15 15 7 7 2 2 5 5 3 2 4 6 5 2 4 5 4 6 4 3 1 4 4 5 8 6 9 11 5 3 3 19 5 16 22 21 14 9 13 13
5 7 10 12 14 17 11 2 5 3 5 2 2 6 6 5 5 6 3 3 3 3 4 7 4 4 5 7 2 9 7 9 15 6 10 19 25 21 17 13 8 8 13 13 15
5 6 8 11 12 15 7 4 8 6 10 4 2 1 3 8 2 3 3 2 4 8 5 5 7 2 3 2 4 5 8 17 19 16 8 10 22 22 15 5 10 11 11 14 16
5 6 8 8 9 11 4 7 3 3 2 2 2 2 1 2 4 5 7 6 7 3 6 7 2 1 3 5 5 5 13 12 12 3 20 12 25 16 6 7 7 11 15 16 18
3 5 6 6 3 7 4 5 1 3 3 3 2 2 3 4 2 6 5 3 5 5 5 4 1 4 3 5 1 5 6 6 15 24 8 7 7 2 1 2 11 14 12 13 14
4 2 6 6 5 1 4 2 3 2 7 5 2 2 2 2 1 3 4 1 2 1 2 4 4 4 3 4 3 6 5 13 18 6 4 6 7 4 4 5 13 18 20 19 19
5 4 7 6 5 3 1 2 3 4 6 2 6 2 4 4 4 1 3 3 1 2 6 6 2 4 3 5 2 11 18 14 5 3 3 6 1 6 4 8 19 21 19 18 18
7 9 4 3 3 1 1 3 4 9 5 4 4 6 5 5 6 7 5 5 1 1 0 6 3 3 4 8 2 8 9 3 4 4 3 4 4 6 2 7 20 17 21 20 21
11 11 5 2 2 1 1 3 5 6 3 6 3 4 1 5 5 7 5 7 4 8 8 8 4 3 1 5 4 10 7 6 8 7 6 3 2 9 3 12 16 22 19 20 18
16 9 8 3 3 2 2 5 2 1 6 1 1 0 2 5 3 6 2 3 4 4 4 4 9 2 5 3 4 3 5 4 4 5 9 4 5 5 3 16 16 16 16 18 17
16 2 3 3 5 3 4 1 4 7 2 1 1 6 5 1 2 3 2 4 3 4 5 3 8 5 2 2 4 5 5 3 3 2 2 4 8 3 7 16 16 17 19 19 18
5 3 3 6 4 3 3 4 3 1 5 1 4 3 2 4 2 5 1 4 3 3 3 4 6 2 6 1 4 6 2 5 3 6 8 6 5 6 19 28 23 22 20 19 19
3 4 2 5 1 4 3 5 3 4 2 4 4 2 5 3 3 2 3 3 2 3 3 4 6 8 2 1 5 5 4 2 1 3 4 7 6 4 12 18 19 18 18 16 16
2 3 3 4 4 1 3 6 2 2 2 3 2 4 7 6 4 2 4 6 3 6 4 5 5 6 9 2 3 5 6 4 2 5 3 4 6 2 12 13 14 15 16 15 14
4 3 1 2 3 2 1 1 1 4 4 5 5 5 3 5 1 4 3 3 6 5 6 5 2 5 10 5 2 2 4 4 3 3 3 4 7 12 17 12 14 14 15 13 13
4 3 1 2 1 2 4 4 3 3 3 3 2 4 4 3 2 2 3 2 5 4 4 4 3 8 8 9 3 4 5 2 3 3 5 6 11 14 19 16 18 16 16 14 13
2 3 4 4 5 4 3 4 4 3 4 5 2 8 6 5 2 5 4 2 2 1 2 4 5 3 7 11 4 10 12 7 6 5 6 6 2 10 15 15 13 13 15 15 16
5 5 0 3 2 7 8 7 10 3 8 6 6 6 8 7 7 8 6 5 5 2 4 1 4 2 7 3 5 7 11 8 5 4 7 6 9 6 4 9 14 13 15 16 16
1 2 3 8 5 5 6 7 9 8 6 1 8 5 9 14 5 2 3 3 4 7 5 3 3 4 8 5 5 6 8 7 4 4 6 3 7 2 5 5 7 13 12 12 13
Wind_Direction
11 7 3 2 2 355 353 354 360 356 352 355 357 356 356 355 14 27 45 8 3 352 351 318 11 5 35 57 37 93 70 234 255 171 298 337 1 314 314 274 302 250 242 292 311
10 5 0 356 358 355 350 347 351 349 348 347 350 348 346 353 60 53 355 3 359 1 14 19 356 1 46 21 20 67 109 226 215 227 270 297 297 306 307 289 263 283 272 262 298
15 3 357 356 357 352 352 353 349 347 348 345 347 346 346 32 65 344 342 353 354 7 10 13 22 55 57 4 1 346 186 170 266 253 23 273 283 219 235 265 233 257 273 299 303
7 360 358 356 351 351 352 353 348 346 348 344 344 345 352 52 81 310 347 348 356 15 24 24 20 48 79 37 331 336 278 209 272 241 318 282 263 261 220 253 247 242 275 289 294
7 354 352 352 353 350 347 345 344 343 344 343 347 351 59 52 69 337 346 351 7 13 40 45 50 52 70 348 344 182 258 281 284 288 268 255 249 248 261 256 265 272 277 272 273
360 357 357 356 350 346 343 340 339 340 344 352 4 11 75 71 293 350 348 9 15 22 19 29 72 89 101 241 236 256 281 290 289 280 266 275 261 160 251 230 272 264 269 273 269
1 353 357 352 347 345 341 333 327 335 344 8 18 50 61 169 350 342 12 333 356 22 33 41 71 72 170 237 262 288 333 292 239 231 286 258 273 232 272 292 289 296 308 296 290
347 344 350 348 348 345 343 343 356 27 345 353 20 66 93 311 226 18 339 347 5 28 59 350 108 113 238 296 18 22 55 351 238 313 271 83 277 332 302 325 312 320 312 324 322
341 343 347 348 348 345 345 353 18 16 15 2 39 69 66 338 15 321 333 340 321 18 27 59 69 110 3 49 22 12 283 309 321 218 288 220 291 273 295 295 297 306 344 332 332
334 345 346 349 348 349 344 346 18 41 2 42 67 42 19 314 296 322 307 8 7 351 23 30 36 69 24 41 348 299 323 285 298 275 284 286 276 284 290 285 300 13 347 333 326
316 342 347 350 358 359 9 25 20 358 39 78 295 152 322 299 269 331 357 22 21 53 21 344 61 67 346 143 223 263 268 279 288 296 294 275 295 294 319 39 49 13 340 329 324
304 337 345 350 16 20 47 74 97 202 360 15 313 328 263 331 340 332 7 52 57 25 338 14 95 16 301 246 239 250 284 283 289 262 318 308 296 309 106 79 48 5 352 336 326
247 324 337 343 64 48 68 92 124 143 97 338 355 355 329 16 328 297 30 92 96 41 28 142 221 316 250 301 228 265 238 275 292 326 299 330 313 191 355 137 2 353 338 329 321
188 349 345 326 38 233 54 341 64 129 76 297 320 353 357 4 243 300 359 79 60 165 309 220 294 320 337 279 91 315 227 305 304 340 293 59 285 252 327 322 347 340 341 334 327
154 98 48 56 152 52 258 334 104 58 33 261 304 314 335 53 309 319 329 24 76 304 82 263 307 354 336 276 104 249 310 314 297 172 297 324 322 269 11 339 340 334 333 328 324
154 139 122 35 50 177 246 76 60 41 267 329 294 346 26 16 358 313 2 37 133 118 29 249 306 229 248 303 219 305 321 12 60 81 23 232 80 279 349 322 325 335 327 327 324
134 92 81 6 130 279 56 60 17 113 10 294 325 17 99 330 350 20 22 10 42 26 4 328 278 300 302 337 338 25 15 346 359 0 245 181 329 252 176 341 336 331 328 324 322
120 90 63 69 329 340 69 38 104 41 228 312 306 25 75 4 15 336 78 56 51 73 78 48 331 12 337 134 234 25 106 124 291 313 296 17 233 301 197 347 336 324 321 324 323
105 69 64 347 5 14 64 75 229 190 161 256 22 55 324 305 206 52 357 171 194 151 132 73 279 298 210 333 107 303 34 211 243 189 360 274 296 315 311 335 341 339 337 333 330
107 109 53 314 6 68 89 243 209 283 120 126 171 130 238 281 344 57 339 233 163 150 133 205 321 234 280 112 356 125 246 9 6 321 303 291 288 264 337 347 343 342 338 333 328
85 84 1 307 78 51 205 230 219 210 146 159 202 171 216 237 191 230 237 266 169 119 110 134 115 288 344 44 183 0 3 11 150 251 289 306 286 252 338 349 330 330 328 328 330
134 94 300 297 72 125 192 187 186 200 151 211 193 165 189 178 203 236 233 214 174 150 180 195 156 274 240 259 161 164 197 194 221 303 251 263 283 229 349 344 328 329 328 333 336
90 109 292 310 190 217 303 244 171 178 207 182 209 203 165 192 247 201 214 225 168 159 178 168 298 337 347 14 12 221 210 190 233 286 259 320 287 352 333 340 347 341 338 339 341
122 124 34 38 1 151 168 202 212 233 249 196 176 136 156 209 215 234 244 225 172 202 190 169 205 179 201 219 150 284 288 185 119 117 270 232 289 323 332 340 350 346 345 345 351
112 204 149 180 216 166 181 144 174 224 226 189 303 219 185 181 183 223 223 244 135 174 111 135 215 262 252 264 202 249 251 234 191 226 175 258 278 309 336 333 342 337 346 352 357
144 135 229 115 111 125 189 197 196 206 162 226 218 198 195 188 190 194 165 207 188 218 157 102 265 114 289 267 270 259 252 221 209 237 277 274 278 216 279 329 343 348 346 349 351
181 71 139 158 156 149 203 190 212 159 208 152 198 144 208 236 180 95 80 81 161 155 167 135 126 61 270 329 332 328 232 179 198 207 166 233 229 298 309 337 342 341 345 343 345